{"data":{"norad_id":52138,"epoch":"2026-05-25T02:26:05.006112Z","epoch_age_seconds":76455,"freshness":"FRESH","line1":"1 52138U 22029BC  26145.10144683  .00000295  00000+0  36631-4 0  9997","line2":"2 52138  53.2148  86.0938 0001436  74.9970 285.1181 15.08840340232475","mean_motion":15.0884034,"eccentricity":0.0001436,"inclination_deg":53.2148,"raan_deg":86.0938,"arg_perigee_deg":74.997,"mean_anomaly_deg":285.1181,"bstar":3.6631e-5,"rev_number":23247,"period_min":95.437533171999,"perigee_km":538.7489422457,"apogee_km":540.73575719494,"semimajor_km":6917.8793497203,"source":"CELESTRAK","updated_at":"2026-05-25T13:38:17.079011Z"}}